sat.trackr.live / text

‹ back to catalog

STARLINK-36724

NORAD 67914 · 2026-036L

PAYLOAD ACTIVE UNKNOWN

§ Identity

Operator
Country
US
Launch date
2026-02-22
Launch site
AFETR
Launch vehicle
Mass (kg)
RCS (m²)

Purposes: comms

External: N2YO · Heavens-Above · Gunter

§ Orbital elements

Epoch: 2026-09-19T22:44:01.044384Z

Period
94.27 min
Inclination
42.9984°
Eccentricity
0.0000614
Mean motion
15.27585297 rev/d
Perigee alt
482.6 km
Apogee alt
483.5 km
Semi-major
6,861.2 km
B*
2.9470e-4
RAAN
227.9892°
Arg perigee
283.4475°
Mean anomaly
76.6308°
Rev number
3,343

§ Raw data

STARLINK-367241 67914U 26036L   26262.94723431  .00007857  00000+0  29470-3 0  99962 67914  42.9984 227.9892 0000614 283.4475  76.6308 15.27585297 33432

JSON: /api/v1/satellites/67914 · /tle

For live sub-satellite position, see the globe view (requires WebGL).

§ Visibility from observer

Set your observer location to see the next 7 days of passes ≥ 10°. The values pass through the URL so the page stays shareable.

No JS? Fill the form by hand. The geolocation button needs JavaScript.